[[{"header":{"parameterUnit":"m.s-1","parameterCategory":1,"la1":30.2991,"la2":30.254,"lo1":-89.0895,"lo2":-89.0444,"dy":0.0017,"dx":0.0017,"nx":28,"ny":28,"refTime":"2025-05-22T09:00:00:Z","depth":0,"parameterNumber":2,"parameterNumberName":"U-component_of_WINDS"},"data":[0,0,0,0,0,0,0,0,0,0,0,0,0,0,0,0,0,0,0,0,0,0,0,0,0,0,0,0,0,0,0,0,0,0,0,0,0,0,0,0,0,0,0,0,0,0,0,0,0,0,0,0,0,0,0,0,0,0,1.8318,1.8319,0,1.8412,1.8413,1.8414,1.8384,1.8382,1.838,1.8378,1.8475,1.848,1.8484,0,0,0,0,0,0,0,0,0,0,0,0,0,1.8113,1.8117,1.8318,1.8319,1.832,1.8412,1.8413,1.8414,1.8385,1.8382,1.838,1.8377,1.8474,1.8479,1.8485,0,0,0,0,0,0,0,0,0,0,0,0,0,1.8204,1.8118,1.8318,1.8316,1.8317,1.8412,1.8413,1.8415,1.8385,1.8382,1.8379,1.8376,1.8472,1.8479,1.8485,1.8587,0,0,1.8506,1.8509,0,0,0,0,0,0,0,0,1.8199,1.8211,1.8315,1.8317,1.8318,1.8383,1.8376,1.8472,1.8386,1.8359,1.8378,1.8375,1.8447,1.8456,1.848,1.8591,1.8596,1.8506,1.851,1.8513,1.8515,0,0,0,0,0,0,0,1.8192,1.8207,1.8355,1.8317,1.8318,1.8311,1.8321,1.8394,1.8419,1.8361,1.8359,1.8371,1.8447,1.8474,1.8482,1.8597,1.8506,1.8512,1.8516,1.8519,1.8795,1.8798,0,0,0,0,0,0,1.8185,1.8202,1.8352,1.8358,1.825,1.8317,1.8328,1.8365,1.8418,1.8423,1.8373,1.8369,1.8464,1.8474,1.8485,1.8607,1.8513,1.8519,1.8523,1.8792,1.8796,1.8799,0,0,0,0,0,0,1.8181,1.8199,1.8348,1.828,1.8298,1.8324,1.8366,1.8369,1.8395,1.8427,1.8431,1.8396,1.8462,1.8476,1.8561,1.861,1.8522,1.8529,1.8788,1.8793,1.8797,1.8851,0,0,0,0,0,0,1.8175,1.8198,1.8237,1.8281,1.8302,1.8423,1.8369,1.8373,1.8407,1.8402,1.8449,1.8454,1.8461,1.8552,1.8568,1.8617,1.8534,1.8783,1.879,1.8796,1.8845,1.8857,1.8867,0,0,0,0,0,1.8168,1.8248,1.8239,1.8257,1.8351,1.8426,1.8438,1.8443,1.8411,1.845,1.847,1.8453,1.8602,1.8561,1.8579,1.8631,1.878,1.8788,1.8795,1.884,1.8854,1.8867,0,0,0,0,0,0,1.821,1.8254,1.8244,1.8341,1.838,1.8421,1.847,1.8459,1.8508,1.8502,1.8506,1.8517,1.8605,1.8626,1.858,1.8731,1.8686,1.8698,1.8714,1.8728,1.8739,1.8732,1.8539,0,0,0,0,0,1.823,1.8287,1.8323,1.8405,1.8425,1.8444,1.8477,1.8478,1.8518,1.8535,1.8561,1.8602,1.8657,1.8694,1.8747,1.8848,1.8857,1.8892,1.8904,1.8913,1.8922,1.8976,1.8992,1.8824,1.8824,1.8823,0,0,1.8273,1.8304,1.834,1.8414,1.8444,1.8503,1.8458,1.8523,1.8566,1.8545,1.8626,1.8648,1.8693,1.8786,1.8828,1.8806,1.8971,1.8922,1.8929,1.8934,1.8985,1.9001,1.9015,1.8829,1.8828,1.8827,0,0,1.8381,1.8411,1.8482,1.8513,1.8559,1.8571,1.8588,1.863,1.8643,1.8726,1.871,1.8762,1.8858,1.889,1.892,1.9039,1.9024,1.9056,1.9114,1.9167,1.918,1.9191,1.9233,1.9248,1.9066,1.9066,1.9066,0,1.8428,1.8516,1.852,1.8585,1.8617,1.86,1.8672,1.8702,1.8763,1.8786,1.8761,1.888,1.8909,1.9009,1.9038,1.9062,1.9081,1.905,1.9178,1.9189,1.92,1.924,1.9255,1.9069,1.9069,1.9068,1.9068,0,1.8572,1.8633,1.8684,1.8743,1.8781,1.885,1.8863,1.8902,1.8899,1.8914,1.8997,1.9031,1.9091,1.9115,1.9113,1.9214,1.9199,1.9176,1.9131,1.922,1.9257,1.9272,1.9074,1.9073,1.9072,1.9071,0,0,1.8709,1.8767,1.8786,1.8812,1.8861,1.8908,1.8975,1.9033,1.9065,1.9108,1.9164,1.9245,1.9224,1.9257,1.9258,1.9304,1.9395,1.9275,1.9276,1.9295,1.9507,1.9523,1.954,1.9386,1.9388,1.9391,1.9503,0,1.8819,1.8937,1.8941,1.9048,1.9104,1.9088,1.9146,1.9183,1.9198,1.9248,1.9265,1.9322,1.929,1.9309,1.9354,1.9374,1.9437,1.9366,1.9437,1.9439,1.9425,1.956,1.9578,1.9681,1.9517,1.952,1.9521,0,1.8965,1.9011,1.9123,1.9163,1.9186,1.9239,1.9291,1.9339,1.9379,1.9387,1.9423,1.9418,1.9486,1.9439,1.9533,1.9485,1.9514,1.9528,1.9532,1.9538,1.9485,1.9569,1.9715,1.973,1.9545,1.9543,1.9541,0,1.9052,1.9142,1.922,1.9243,1.9292,1.9329,1.9351,1.9389,1.9422,1.9468,1.949,1.9543,1.9572,1.9614,1.9623,1.9588,1.9716,1.967,1.9724,1.9724,1.9751,1.9749,1.9903,1.9772,1.9772,1.9771,1.9771,0,1.9174,1.9243,1.926,1.9308,1.9385,1.9389,1.9465,1.9485,1.9518,1.9569,1.9559,1.9608,1.9617,1.9668,1.9675,1.9751,1.9765,1.9773,1.9774,1.9773,1.9772,1.9791,1.9784,1.9776,1.9775,1.9774,1.9773,0,1.9284,1.9298,1.9382,1.9421,1.9433,1.9487,1.952,1.9566,1.958,1.9646,1.9661,1.9683,1.9742,1.9755,1.9826,1.9831,1.992,1.9914,1.9906,1.9905,1.9958,1.9952,2.0129,2.0152,2.0007,2.0008,2.0009,0,1.9361,1.9414,1.9458,1.9491,1.9515,1.9569,1.9603,1.961,1.9646,1.9695,1.9735,1.9792,1.9838,1.9933,1.9955,2.0009,2.0004,2.0062,2.0012,2.0009,2.0003,2.0,2.0004,2.0071,2.0073,2.0074,2.0075,0,1.9496,1.95,1.9549,1.9601,1.9641,1.9682,1.9722,1.975,1.9762,1.9802,1.9862,1.9898,1.9968,2.0025,2.0079,2.0101,2.009,2.0091,2.0106,2.0105,2.0098,2.0101,1.9931,2.0087,2.0086,2.0085,2.0084,2.0084,1.9591,1.9636,1.9674,1.9729,1.9759,1.9795,1.984,1.9859,1.9909,1.9966,1.9967,2.0032,2.007,2.0141,2.0166,2.0217,2.0199,2.0221,2.0226,2.0232,2.0236,2.009,2.0227,2.0227,2.0226,2.0226,2.0226,0,1.9724,1.9747,1.9798,1.9852,1.9895,1.988,1.9923,1.996,2.0016,2.0053,2.0098,2.0166,2.0221,2.0247,2.0301,2.0337,2.0333,2.0351,2.0348,2.0353,2.0249,2.023,2.0353,2.0353,2.0353,2.0353,2.0353,2.0353,1.9798,1.9874,1.9882,1.9972,1.9995,2.0057,2.0082,2.0116,2.0145,2.0221,2.0266,2.0282,2.0315,2.0371,2.042,2.0427,2.0447,2.0467,2.047,2.0373,2.036,2.0348,2.033,2.0471,2.0471,2.0569,2.057,2.0571]},{"header":{"parameterUnit":"m.s-1","parameterCategory":1,"la1":30.2991,"la2":30.254,"lo1":-89.0895,"lo2":-89.0444,"dy":0.0017,"dx":0.0017,"nx":28,"ny":28,"refTime":"2025-05-22T09:00:00:Z","depth":0,"parameterNumber":3,"parameterNumberName":"V-component_of_WINDS"},"data":[0,0,0,0,0,0,0,0,0,0,0,0,0,0,0,0,0,0,0,0,0,0,0,0,0,0,0,0,0,0,0,0,0,0,0,0,0,0,0,0,0,0,0,0,0,0,0,0,0,0,0,0,0,0,0,0,0,0,-0.5691,-0.5691,0,-0.5671,-0.5671,-0.567,-0.5686,-0.5687,-0.5687,-0.5688,-0.5667,-0.5666,-0.5665,0,0,0,0,0,0,0,0,0,0,0,0,0,-0.5744,-0.5743,-0.5691,-0.5691,-0.5691,-0.5671,-0.5671,-0.567,-0.5686,-0.5687,-0.5687,-0.5688,-0.5668,-0.5666,-0.5665,0,0,0,0,0,0,0,0,0,0,0,0,0,-0.5722,-0.5743,-0.5691,-0.5696,-0.5696,-0.5671,-0.5671,-0.567,-0.5686,-0.5687,-0.5688,-0.5689,-0.5668,-0.5667,-0.5665,-0.5634,0,0,-0.566,-0.5659,0,0,0,0,0,0,0,0,-0.5723,-0.572,-0.5695,-0.5695,-0.5696,-0.5682,-0.5682,-0.5658,-0.5685,-0.569,-0.5688,-0.5689,-0.5671,-0.567,-0.5664,-0.5633,-0.5632,-0.5659,-0.5658,-0.5658,-0.5657,0,0,0,0,0,0,0,-0.5725,-0.5721,-0.5683,-0.5695,-0.5695,-0.5699,-0.5697,-0.5677,-0.5675,-0.5689,-0.569,-0.5688,-0.5672,-0.5665,-0.5663,-0.5632,-0.5659,-0.5658,-0.5657,-0.5656,-0.5576,-0.5575,0,0,0,0,0,0,-0.5726,-0.5722,-0.5684,-0.5682,-0.5712,-0.5698,-0.5695,-0.5685,-0.5675,-0.5675,-0.5687,-0.5689,-0.5668,-0.5665,-0.5663,-0.5626,-0.5658,-0.5656,-0.5655,-0.5577,-0.5576,-0.5574,0,0,0,0,0,0,-0.5727,-0.5722,-0.5685,-0.5703,-0.5698,-0.5696,-0.5684,-0.5684,-0.5678,-0.5674,-0.5673,-0.5681,-0.5668,-0.5665,-0.5641,-0.5625,-0.5655,-0.5654,-0.5578,-0.5577,-0.5575,-0.5552,0,0,0,0,0,0,-0.5728,-0.5722,-0.571,-0.5702,-0.5697,-0.5663,-0.5683,-0.5683,-0.5675,-0.5677,-0.5668,-0.5667,-0.5669,-0.5644,-0.5639,-0.5623,-0.5652,-0.558,-0.5578,-0.5576,-0.5554,-0.555,-0.5546,0,0,0,0,0,-0.573,-0.5704,-0.571,-0.5705,-0.5682,-0.5662,-0.5659,-0.5662,-0.5673,-0.5661,-0.5659,-0.5667,-0.5628,-0.5641,-0.5636,-0.562,-0.5581,-0.5578,-0.5576,-0.5556,-0.5551,-0.5546,0,0,0,0,0,0,-0.571,-0.5703,-0.5709,-0.568,-0.5671,-0.5665,-0.5649,-0.5656,-0.5644,-0.5646,-0.565,-0.5648,-0.5623,-0.5619,-0.5634,-0.559,-0.5606,-0.5603,-0.5593,-0.5588,-0.5584,-0.5585,-0.5651,0,0,0,0,0,-0.5703,-0.5687,-0.5682,-0.5657,-0.5652,-0.5652,-0.5643,-0.5646,-0.5637,-0.5634,-0.563,-0.5621,-0.5607,-0.5597,-0.5584,-0.5554,-0.5552,-0.5541,-0.5537,-0.5533,-0.553,-0.5514,-0.5509,-0.5567,-0.5567,-0.5567,0,0,-0.5686,-0.5681,-0.567,-0.5653,-0.5646,-0.563,-0.5648,-0.563,-0.5618,-0.5631,-0.5608,-0.5605,-0.5596,-0.5569,-0.5557,-0.5565,-0.5514,-0.553,-0.5528,-0.5526,-0.5511,-0.5505,-0.5501,-0.5565,-0.5565,-0.5565,0,0,-0.5648,-0.5642,-0.5621,-0.5615,-0.5605,-0.5605,-0.56,-0.5593,-0.5591,-0.5568,-0.5577,-0.5564,-0.5539,-0.5532,-0.5526,-0.5487,-0.5494,-0.5483,-0.5461,-0.5446,-0.5441,-0.5437,-0.5423,-0.5418,-0.548,-0.548,-0.548,0,-0.5629,-0.5605,-0.5609,-0.559,-0.5582,-0.5594,-0.5572,-0.5566,-0.5553,-0.5547,-0.5557,-0.5527,-0.5522,-0.5493,-0.5484,-0.5478,-0.5473,-0.5483,-0.5441,-0.5437,-0.5434,-0.542,-0.5415,-0.5478,-0.5478,-0.5478,-0.5479,0,-0.5582,-0.5565,-0.5549,-0.5536,-0.5526,-0.5506,-0.5508,-0.5498,-0.5502,-0.5502,-0.5479,-0.5473,-0.5459,-0.5453,-0.5457,-0.5425,-0.5431,-0.5441,-0.5457,-0.5427,-0.5414,-0.5409,-0.5476,-0.5477,-0.5477,-0.5477,0,0,-0.5528,-0.5519,-0.5513,-0.5508,-0.5499,-0.5486,-0.5468,-0.5454,-0.5445,-0.5436,-0.542,-0.54,-0.541,-0.5402,-0.5406,-0.5393,-0.5362,-0.5404,-0.5404,-0.5396,-0.5327,-0.5319,-0.5313,-0.5368,-0.5367,-0.5366,-0.5328,0,-0.5489,-0.5456,-0.546,-0.5428,-0.5413,-0.5425,-0.5408,-0.5402,-0.5401,-0.5388,-0.5388,-0.5373,-0.5387,-0.5382,-0.537,-0.5368,-0.5348,-0.5371,-0.5353,-0.5352,-0.5353,-0.5306,-0.5297,-0.5261,-0.5323,-0.5322,-0.5321,0,-0.5439,-0.5428,-0.5395,-0.5389,-0.5383,-0.5368,-0.5357,-0.5344,-0.5337,-0.5338,-0.533,-0.5336,-0.5318,-0.5336,-0.5311,-0.5327,-0.532,-0.5318,-0.5317,-0.5314,-0.5334,-0.5301,-0.525,-0.5244,-0.5314,-0.5314,-0.5315,0,-0.5403,-0.538,-0.5358,-0.5353,-0.5346,-0.5335,-0.5332,-0.5326,-0.5318,-0.5308,-0.5303,-0.5291,-0.5284,-0.5275,-0.5278,-0.5291,-0.5253,-0.5271,-0.5252,-0.5252,-0.5242,-0.5243,-0.5188,-0.524,-0.524,-0.524,-0.524,0,-0.5358,-0.5337,-0.5341,-0.5327,-0.5304,-0.531,-0.5287,-0.5286,-0.528,-0.5267,-0.5277,-0.5263,-0.5269,-0.5256,-0.5259,-0.5238,-0.5235,-0.5235,-0.5235,-0.5233,-0.5233,-0.5227,-0.5229,-0.5238,-0.5239,-0.5239,-0.5239,0,-0.5313,-0.5315,-0.5291,-0.5287,-0.5285,-0.5269,-0.5265,-0.5252,-0.5253,-0.5236,-0.5232,-0.5233,-0.5219,-0.5221,-0.5206,-0.5207,-0.5181,-0.5185,-0.5183,-0.5183,-0.5164,-0.5166,-0.5103,-0.5095,-0.5153,-0.5152,-0.5152,0,-0.5283,-0.5267,-0.5262,-0.5253,-0.5249,-0.5235,-0.5228,-0.5233,-0.5224,-0.5216,-0.5204,-0.5191,-0.518,-0.5157,-0.5157,-0.5145,-0.5148,-0.5127,-0.5147,-0.5145,-0.5147,-0.5148,-0.5146,-0.5123,-0.5122,-0.5122,-0.5121,0,-0.5231,-0.5233,-0.5221,-0.521,-0.52,-0.5191,-0.5184,-0.5176,-0.5181,-0.5171,-0.5157,-0.5149,-0.5133,-0.512,-0.5109,-0.5106,-0.5114,-0.5116,-0.5111,-0.5107,-0.5106,-0.5106,-0.5171,-0.5117,-0.5117,-0.5117,-0.5118,-0.5118,-0.5192,-0.5179,-0.5173,-0.516,-0.5155,-0.5148,-0.5135,-0.5135,-0.5123,-0.5111,-0.5115,-0.5099,-0.5093,-0.508,-0.5076,-0.5063,-0.5071,-0.5064,-0.5062,-0.506,-0.5057,-0.511,-0.5062,-0.5062,-0.5062,-0.5062,-0.5062,0,-0.5139,-0.5137,-0.5124,-0.5114,-0.5103,-0.5113,-0.5105,-0.5096,-0.5081,-0.5076,-0.5065,-0.5049,-0.5037,-0.5036,-0.5024,-0.5015,-0.5018,-0.5011,-0.5011,-0.5011,-0.5051,-0.5056,-0.5009,-0.5009,-0.5009,-0.5009,-0.5009,-0.5009,-0.5111,-0.5089,-0.509,-0.5066,-0.5064,-0.5048,-0.5043,-0.5037,-0.5032,-0.5014,-0.5003,-0.5003,-0.4999,-0.4988,-0.4977,-0.4977,-0.4972,-0.4964,-0.4965,-0.5002,-0.5008,-0.5013,-0.5018,-0.4963,-0.4963,-0.4926,-0.4925,-0.4925]}]]